Date String (YYYY-MM-DD hh:mm:ss) UTC,Instrument flags,Ambient pressure (hPa),Sample flow (lpm),Bypass flow (lpm),Sample temperature (°C),Ambient temperature (°C),ASC tube jacket temperature (°C),LED temperature (°C),Box temperature (°C),Sample RH (%),Span deviation,Mass concentration (μg/m³),Mass concentration (μg/m³),Mass concentration (μg/m³)
DateTimeUTC,F1_M11,P_M11,Q1_M11,Q2_M11,T1_M11,T2_M11,T3_M11,T4_M11,T5_M11,U1_M11,ZSPAN_M11,X0_M11,X2_M11,X1_M11
2022-07-14 07:00:00,,0829.2,4.99,0.00,29.5,28.1,00.0,38.2,31.4,20.3,0000.0,0008.19,0003.58,0003.22
2022-07-14 07:01:00,,0829.3,4.99,0.00,29.5,28.2,00.0,38.3,31.4,20.4,0000.0,0007.40,0003.55,0003.20
2022-07-14 07:02:00,,0829.2,5.00,0.00,29.5,28.3,00.0,38.3,31.4,20.4,0000.0,0005.63,0003.51,0003.19
2022-07-14 07:03:00,,0829.2,5.01,0.00,29.6,28.4,00.0,38.3,31.5,20.4,0000.0,0005.56,0003.49,0003.17
2022-07-14 07:04:00,,0828.8,5.00,0.00,29.6,28.5,00.0,38.3,31.5,20.3,0000.0,0005.84,0003.48,0003.15
2022-07-14 07:05:00,,0829.0,5.00,0.00,29.6,28.6,00.0,38.3,31.6,20.3,0000.0,0006.73,0003.46,0003.13
2022-07-14 07:06:00,,0828.9,5.00,0.00,29.7,28.7,00.0,38.4,31.6,20.2,0000.0,0006.79,0003.45,0003.11
2022-07-14 07:07:00,,0829.2,5.00,0.00,29.7,28.7,00.0,38.4,31.6,20.0,0000.0,0006.74,0003.44,0003.08
2022-07-14 07:08:00,,0828.9,4.99,0.00,29.7,28.2,00.0,38.3,31.6,19.9,0000.0,0006.56,0003.40,0003.05
2022-07-14 07:09:00,,0829.2,5.00,0.00,29.7,27.7,00.0,38.3,31.5,19.3,0000.0,0006.28,0003.35,0003.01
2022-07-14 07:10:00,,0829.2,5.00,0.00,29.6,27.6,00.0,38.3,31.4,19.9,0000.0,0006.14,0003.33,0002.97
2022-07-14 07:11:00,,0829.2,5.00,0.00,29.6,27.7,00.0,38.3,31.4,20.2,0000.0,0006.72,0003.35,0002.93
2022-07-14 07:12:00,,0829.2,5.00,0.00,29.6,27.8,00.0,38.3,31.4,20.2,0000.0,0007.78,0003.34,0002.90
2022-07-14 07:13:00,,0829.3,4.99,0.00,29.6,27.9,00.0,38.3,31.4,20.2,0000.0,0007.75,0003.35,0002.86
2022-07-14 07:14:00,,0829.0,5.02,0.00,29.6,28.0,00.0,38.3,31.4,20.2,0000.0,0007.82,0003.36,0002.84
2022-07-14 07:15:00,,0829.0,5.00,0.00,29.6,28.2,00.0,38.3,31.5,20.2,0000.0,0007.69,0003.34,0002.83
2022-07-14 07:16:00,,0828.8,5.00,0.00,29.6,28.3,00.0,38.4,31.5,19.9,0000.0,0007.00,0003.34,0002.82
2022-07-14 07:17:00,,0828.9,5.01,0.00,29.7,28.4,00.0,38.4,31.5,19.5,0000.0,0007.15,0003.31,0002.79
2022-07-14 07:18:00,,0828.9,5.00,0.00,29.7,28.5,00.0,38.4,31.6,18.9,0000.0,0007.25,0003.29,0002.74
2022-07-14 07:19:00,,0828.7,4.99,0.00,29.7,28.6,00.0,38.4,31.6,18.9,0000.0,0007.51,0003.31,0002.67
2022-07-14 07:20:00,,0828.5,5.01,0.00,29.7,28.7,00.0,38.4,31.7,18.7,0000.0,0007.66,0003.32,0002.61
2022-07-14 07:21:00,,0828.6,5.00,0.00,29.8,28.7,00.0,38.4,31.7,18.4,0000.0,0007.87,0003.30,0002.54
2022-07-14 07:22:00,,0828.5,5.01,0.00,29.8,28.0,00.0,38.4,31.6,18.3,0000.0,0007.99,0003.25,0002.48
2022-07-14 07:23:00,,0828.5,5.00,0.00,29.7,27.2,00.0,38.3,31.4,18.5,0000.0,0006.77,0003.19,0002.39
2022-07-14 07:24:00,,0828.4,5.01,0.00,29.6,27.1,00.0,38.3,31.4,18.5,0000.0,0006.48,0003.12,0002.31
2022-07-14 07:25:00,,0828.4,5.02,0.00,29.6,27.1,00.0,38.3,31.3,18.6,0000.0,0006.94,0003.04,0002.22
2022-07-14 07:26:00,,0828.4,5.00,0.00,29.5,27.2,00.0,38.3,31.2,18.6,0000.0,0007.03,0002.91,0002.12
2022-07-14 07:27:00,,0828.5,5.00,0.00,29.5,27.4,00.0,38.3,31.2,18.5,0000.0,0007.00,0002.82,0002.02
2022-07-14 07:28:00,,0828.4,4.99,0.00,29.5,27.6,00.0,38.3,31.3,18.7,0000.0,0007.01,0002.75,0001.92
2022-07-14 07:29:00,,0828.5,5.00,0.00,29.5,27.8,00.0,38.3,31.3,18.7,0000.0,0006.77,0002.65,0001.85
2022-07-14 07:30:00,,0828.4,4.99,0.00,29.5,27.9,00.0,38.3,31.3,18.5,0000.0,0007.46,0002.55,0001.83
2022-07-14 07:31:00,,0828.8,5.00,0.00,29.5,28.1,00.0,38.3,31.4,18.4,0000.0,0007.18,0002.44,0001.79
2022-07-14 07:32:00,,0828.8,5.00,0.00,29.5,28.2,00.0,38.3,31.4,18.4,0000.0,0006.84,0002.37,0001.77
2022-07-14 07:33:00,,0829.1,4.99,0.00,29.6,28.3,00.0,38.3,31.5,18.4,0000.0,0006.15,0002.32,0001.75
2022-07-14 07:34:00,,0828.7,5.00,0.00,29.6,28.4,00.0,38.3,31.5,18.5,0000.0,0006.11,0002.31,0001.74
2022-07-14 07:35:00,,0828.6,4.99,0.00,29.6,28.5,00.0,38.3,31.6,18.4,0000.0,0006.13,0002.30,0001.73
2022-07-14 07:36:00,,0828.4,5.01,0.00,29.7,28.6,00.0,38.4,31.6,18.3,0000.0,0005.53,0002.25,0001.71
2022-07-14 07:37:00,,0828.4,5.00,0.00,29.7,28.7,00.0,38.4,31.6,18.2,0000.0,0005.05,0002.21,0001.69
2022-07-14 07:38:00,,0828.4,5.00,0.00,29.7,28.7,00.0,38.4,31.7,18.1,0000.0,0005.70,0002.19,0001.68
2022-07-14 07:39:00,,0828.4,4.99,0.00,29.8,28.6,00.0,38.4,31.7,18.1,0000.0,0005.71,0002.16,0001.67
2022-07-14 07:40:00,,0828.4,4.99,0.00,29.7,27.7,00.0,38.3,31.5,18.2,0000.0,0005.76,0002.20,0001.69
2022-07-14 07:41:00,,0828.4,5.02,0.00,29.7,27.1,00.0,38.3,31.4,18.4,0000.0,0004.34,0002.17,0001.68
2022-07-14 07:42:00,,0828.4,4.99,0.00,29.6,27.1,00.0,38.3,31.3,18.5,0000.0,0004.46,0002.19,0001.69
2022-07-14 07:43:00,,0828.5,5.00,0.00,29.5,27.2,00.0,38.3,31.3,18.6,0000.0,0004.75,0002.20,0001.71
2022-07-14 07:44:00,,0828.6,5.00,0.00,29.5,27.4,00.0,38.3,31.2,18.7,0000.0,0004.86,0002.21,0001.73
2022-07-14 07:45:00,,0828.5,4.98,0.00,29.5,27.5,00.0,38.3,31.3,18.8,0000.0,0005.04,0002.24,0001.74
2022-07-14 07:46:00,,0828.5,5.00,0.00,29.5,27.7,00.0,38.3,31.3,18.8,0000.0,0005.43,0002.31,0001.75
2022-07-14 07:47:00,,0828.5,5.00,0.00,29.5,27.9,00.0,38.3,31.3,18.8,0000.0,0006.87,0002.33,0001.75
2022-07-14 07:48:00,,0828.5,5.00,0.00,29.5,28.1,00.0,38.3,31.4,18.7,0000.0,0007.06,0002.36,0001.75
2022-07-14 07:49:00,,0828.4,5.00,0.00,29.6,28.2,00.0,38.3,31.4,18.7,0000.0,0006.43,0002.33,0001.75
2022-07-14 07:50:00,,0828.4,4.99,0.00,29.6,28.3,00.0,38.3,31.5,18.6,0000.0,0006.36,0002.29,0001.73
2022-07-14 07:51:00,,0828.4,5.00,0.00,29.6,28.4,00.0,38.3,31.5,18.5,0000.0,0006.65,0002.32,0001.72
2022-07-14 07:52:00,,0828.3,5.00,0.00,29.7,28.5,00.0,38.4,31.6,18.5,0000.0,0006.79,0002.33,0001.71
2022-07-14 07:53:00,,0828.3,5.00,0.00,29.7,28.6,00.0,38.4,31.6,18.3,0000.0,0006.84,0002.36,0001.69
2022-07-14 07:54:00,,0828.3,5.00,0.00,29.7,28.7,00.0,38.4,31.6,18.2,0000.0,0006.54,0002.36,0001.66
2022-07-14 07:55:00,,0828.3,5.00,0.00,29.8,28.8,00.0,38.4,31.7,18.1,0000.0,0006.38,0002.32,0001.64
2022-07-14 07:56:00,,0828.2,5.00,0.00,29.8,28.6,00.0,38.4,31.8,17.9,0000.0,0006.24,0002.30,0001.62
2022-07-14 07:57:00,,0828.2,4.99,0.00,29.8,27.8,00.0,38.4,31.6,18.0,0000.0,0005.97,0002.21,0001.59
2022-07-14 07:58:00,,0828.2,5.01,0.00,29.7,27.2,00.0,38.3,31.5,18.0,0000.0,0004.36,0002.16,0001.58
2022-07-14 07:59:00,,0828.2,5.00,0.00,29.6,27.2,00.0,38.3,31.4,18.0,0000.0,0004.35,0002.19,0001.58
